Weather History for CYZF - December, 2012

Change the Weather History Date:

Friday, December 21, 2012

  Actual Average Record
Temperature  
Mean Temperature -17 °F -  
Max Temperature -7 °F -9 °F 60 °F (2005)
Min Temperature -27 °F -24 °F -41 °F (2004)
Degree Days  
Heating Degree Days 82    
Moisture  
Dew Point -29 °F    
Average Humidity 55    
Maximum Humidity 65    
Minimum Humidity 34    
Precipitation  
Precipitation 0.01 in 0.02 in - ()
Sea Level Pressure  
Sea Level Pressure 30.59 in    
Wind  
Wind Speed 6 mph ()    
Max Wind Speed 9 mph    
Max Gust Speed -    
Visibility 15.0 miles    
Events Snow    
Averages and records for this station are not official NWS values.
T = Trace of Precipitation, MM = Missing Value Source: Averaged Metar Reports

Daily Weather History Graph

Daily Weather History Graph

Search for Another Location

Airport or City:

Trip Planner

Search our weather history database for the weather conditions in past years. The results will help you decide how hot, cold, wet, or windy it might be!

Date:

Astronomy

Dec. 21, 2012 Rise Set
Actual Time 10:07 AM MST 3:04 PM MST
Civil Twilight 8:59 AM MST 4:13 PM MST
Nautical Twilight 7:55 AM MST 5:16 PM MST
Astronomical Twilight 6:59 AM MST 6:12 PM MST
Moon 12:18 PM MST (12/21) 2:26 AM MST (12/21)
Length of Visible Light 7h 13m
Length of Day
4h 57m
Waxing Gibbous, 65% of the Moon is Illuminated
Dec 21
Waxing Gibbous
Dec 28
Full
Jan 4
Last Quarter
Jan 11
New
Jan 18
First Quarter

Hourly Weather History & Observations

Time (MST) Temp. Windchill Dew Point Humidity Pressure Visibility Wind Dir Wind Speed Gust Speed Precip Events Conditions
12:00 AM -9.4 °F -25.6 °F -18.4 °F 65% 30.46 in 15.0 mi NNW 8.1 mph - N/A Snow Light Snow
1:00 AM -9.4 °F -25.6 °F -20.2 °F 59% 30.46 in 15.0 mi North 8.1 mph - N/A Snow Light Snow
2:00 AM -11.2 °F -26.4 °F -20.2 °F 64% 30.48 in 15.0 mi NNW 6.9 mph - N/A Snow Light Snow
3:00 AM -9.4 °F -25.6 °F -20.2 °F 59% 30.49 in 15.0 mi NNW 8.1 mph - N/A Snow Light Snow
4:00 AM -9.4 °F -25.6 °F -18.4 °F 65% 30.50 in 15.0 mi North 8.1 mph - N/A Snow Light Snow
5:00 AM -10 °F - -20 °F 43% 30.51 in 15 mi NNW 6.9 mph - - Snow Light Snow
5:00 AM -9.4 °F -24.3 °F -20.2 °F 59% 30.51 in 15.0 mi NNW 6.9 mph - N/A Snow Light Snow
6:00 AM -11.2 °F -26.4 °F -22.0 °F 59% 30.52 in 15.0 mi North 6.9 mph - N/A Snow Light Snow
7:00 AM -11.2 °F -26.4 °F -22.0 °F 59% 30.53 in 15.0 mi North 6.9 mph - N/A Snow Light Snow
8:00 AM -13.0 °F -28.6 °F -23.8 °F 59% 30.54 in 15.0 mi NNW 6.9 mph - N/A Snow Light Snow
9:00 AM -14.8 °F -33.5 °F -25.6 °F 58% 30.55 in 15.0 mi NNW 9.2 mph - N/A Snow Light Snow
10:00 AM -16.6 °F -34.4 °F -27.4 °F 58% 30.57 in 15.0 mi NNW 8.1 mph - N/A Snow Light Snow
10:47 AM -18.4 °F -33.4 °F - N/A% - 15.0 mi NNW 5.8 mph - N/A   Scattered Clouds
11:00 AM -18 °F - -29 °F 38% 30.58 in 15 mi NNW 8.1 mph - - Snow Light Snow
11:00 AM -18.4 °F -36.6 °F -29.2 °F 58% 30.58 in 15.0 mi NNW 8.1 mph - N/A   Scattered Clouds
12:00 PM -18.4 °F -35.1 °F -29.2 °F 58% 30.58 in 15.0 mi NNW 6.9 mph - N/A   Partly Cloudy
1:00 PM -18.4 °F -36.6 °F -29.2 °F 58% 30.59 in 15.0 mi NNW 8.1 mph - N/A   Partly Cloudy
2:00 PM -20.2 °F -35.5 °F -31.0 °F 58% 30.61 in 15.0 mi NW 5.8 mph - N/A   Partly Cloudy
3:00 PM -20.2 °F -33.5 °F -32.8 °F 52% 30.63 in 15.0 mi NW 4.6 mph - N/A   Partly Cloudy
4:00 PM -22.0 °F -37.7 °F -34.6 °F 52% 30.64 in 15.0 mi NW 5.8 mph - N/A   Partly Cloudy
5:00 PM -24 °F - -36 °F 35% 30.65 in 15 mi NNW 6.9 mph - -   Clear
5:00 PM -23.8 °F -41.6 °F -36.4 °F 52% 30.65 in 15.0 mi NNW 6.9 mph - N/A   Partly Cloudy
6:00 PM -25.6 °F -41.9 °F -36.4 °F 57% 30.66 in 15.0 mi NNW 5.8 mph - N/A   Clear
7:00 PM -25.6 °F -41.9 °F -36.4 °F 57% 30.67 in 15.0 mi NW 5.8 mph - N/A   Clear
8:00 PM -27.4 °F -44.1 °F -38.2 °F 57% 30.69 in 15.0 mi NNW 5.8 mph - N/A   Clear
9:00 PM -27.4 °F -41.9 °F -38.2 °F 57% 30.69 in 15.0 mi North 4.6 mph - N/A   Clear
10:00 PM -27.4 °F -41.9 °F -38.2 °F 57% 30.69 in 15.0 mi North 4.6 mph - N/A   Clear
11:00 PM -26 °F - -38 °F 34% 30.71 in 15 mi North 6.9 mph - -  
11:00 PM -25.6 °F -43.8 °F -38.2 °F 52% 30.71 in 15.0 mi North 6.9 mph - N/A   Clear